Weather History for KBKL - October, 2012

Change the Weather History Date:

Saturday, October 27, 2012

  Actual Average Record
Temperature  
Mean Temperature 48 °F -  
Max Temperature 50 °F 56 °F 72 °F (1998)
Min Temperature 46 °F 43 °F 37 °F (1997)
Degree Days  
Heating Degree Days 17    
Moisture  
Dew Point 45 °F    
Average Humidity 87    
Maximum Humidity 93    
Minimum Humidity 76    
Precipitation  
Precipitation 0.53 in - - ()
Sea Level Pressure  
Sea Level Pressure 30.09 in    
Wind  
Wind Speed 18 mph (NNE)    
Max Wind Speed 22 mph    
Max Gust Speed 31 mph    
Visibility 8 miles    
Events Rain    
Averages and records for this station are not official NWS values.
T = Trace of Precipitation, MM = Missing Value Source: NWS Daily Summary

Daily Weather History Graph

Daily Weather History Graph

Search for Another Location

Airport or City:

Trip Planner

Search our weather history database for the weather conditions in past years. The results will help you decide how hot, cold, wet, or windy it might be!

Date:

Astronomy

Oct. 27, 2012 Rise Set
Actual Time 7:53 AM EDT 6:27 PM EDT
Civil Twilight 7:24 AM EDT 6:55 PM EDT
Nautical Twilight 6:52 AM EDT 7:28 PM EDT
Astronomical Twilight 6:19 AM EDT 8:00 PM EDT
Moon 5:13 PM EDT (10/27) 5:45 AM EDT (10/27)
Length of Visible Light 11h 31m
Length of Day
10h 34m
Waxing Gibbous, 96% of the Moon is Illuminated
Oct 27
Waxing Gibbous
Oct 29
Full
Nov 6
Last Quarter
Nov 13
New
Nov 20
First Quarter

Hourly Weather History & Observations

Time (EDT) Temp. Windchill Dew Point Humidity Pressure Visibility Wind Dir Wind Speed Gust Speed Precip Events Conditions
12:15 AM 48.2 °F - 44.6 °F 87% 30.14 in 5.0 mi ENE 13.8 mph - 0.02 in Rain Light Rain
12:29 AM 48.2 °F - 44.6 °F 87% 30.14 in 10.0 mi NE 15.0 mph 23.0 mph 0.03 in Rain Light Rain
12:43 AM 48.2 °F - 44.6 °F 87% 30.14 in 9.0 mi NE 16.1 mph 24.2 mph 0.04 in Rain Light Rain
12:53 AM 48.0 °F - 45.0 °F 89% 30.14 in 10.0 mi NE 18.4 mph 25.3 mph 0.05 in Rain Light Rain
1:07 AM 48.2 °F - 44.6 °F 87% 30.12 in 10.0 mi NE 19.6 mph 28.8 mph 0.01 in Rain Light Rain
1:53 AM 48.0 °F - 44.1 °F 86% 30.12 in 10.0 mi NE 16.1 mph 27.6 mph 0.02 in Rain Light Rain
2:53 AM 48.0 °F - 45.0 °F 89% 30.12 in 10.0 mi NNE 19.6 mph 26.5 mph 0.03 in Rain Light Rain
3:53 AM 46.9 °F - 44.1 °F 90% 30.12 in 4.0 mi NNE 20.7 mph 28.8 mph 0.05 in Rain Rain
4:04 AM 46.4 °F 38.7 °F 42.8 °F 87% 30.09 in 7.0 mi NE 20.7 mph 28.8 mph 0.02 in Rain Rain
4:43 AM 48.2 °F - 44.6 °F 87% 30.08 in 6.0 mi NE 20.7 mph 28.8 mph 0.09 in Rain Rain
4:53 AM 48.0 °F - 44.1 °F 86% 30.09 in 9.0 mi NNE 21.9 mph 29.9 mph 0.10 in Rain Light Rain
5:53 AM 46.9 °F - 43.0 °F 86% 30.08 in 10.0 mi NE 20.7 mph 31.1 mph 0.09 in Rain Light Rain
6:53 AM 48.0 °F - 45.0 °F 89% 30.08 in 10.0 mi NE 15.0 mph 27.6 mph 0.07 in Rain Light Rain
7:51 AM 48.2 °F - 44.6 °F 87% 30.07 in 7.0 mi NNE 16.1 mph 27.6 mph 0.04 in Rain Light Rain
7:53 AM 48.0 °F - 45.0 °F 89% 30.08 in 8.0 mi NNE 19.6 mph 27.6 mph 0.04 in Rain Light Rain
8:07 AM 48.2 °F - 44.6 °F 87% 30.07 in 10.0 mi NNE 20.7 mph 27.6 mph 0.02 in Rain Light Rain
8:33 AM 48.2 °F - 44.6 °F 87% 30.08 in 10.0 mi NNE 17.3 mph 26.5 mph 0.03 in Rain Light Rain
8:49 AM 48.2 °F - 44.6 °F 87% 30.08 in 8.0 mi NNE 19.6 mph 25.3 mph 0.03 in Rain Light Rain
8:53 AM 48.0 °F - 44.1 °F 86% 30.09 in 9.0 mi NNE 18.4 mph 26.5 mph 0.04 in Rain Light Rain
9:53 AM 48.0 °F - 46.0 °F 93% 30.09 in 3.0 mi NNE 18.4 mph 25.3 mph 0.01 in Rain Light Rain
9:56 AM 48.2 °F - 46.4 °F 93% 30.09 in 2.5 mi NNE 17.3 mph 25.3 mph 0.00 in Rain Light Rain
10:06 AM 48.2 °F - 46.4 °F 93% 30.10 in 5.0 mi NNE 17.3 mph - 0.00 in Rain Light Rain
10:26 AM 48.2 °F - 46.4 °F 93% 30.10 in 4.0 mi North 16.1 mph 23.0 mph 0.01 in Rain Light Rain
10:36 AM 48.2 °F - 46.4 °F 93% 30.10 in 4.0 mi North 17.3 mph 24.2 mph 0.01 in Rain Light Rain
11:16 AM 48.2 °F - 46.4 °F 93% 30.10 in 6.0 mi North 19.6 mph 24.2 mph 0.00 in Rain Light Rain
11:53 AM 48.9 °F - 45.0 °F 86% 30.11 in 10.0 mi North 19.6 mph 25.3 mph 0.00 in   Overcast
12:53 PM 48.9 °F - 45.0 °F 86% 30.10 in 10.0 mi NNE 16.1 mph 25.3 mph N/A   Overcast
1:05 PM 48.2 °F - 44.6 °F 87% 30.08 in 10.0 mi NNE 17.3 mph 24.2 mph N/A   Overcast
1:53 PM 48.9 °F - 45.0 °F 86% 30.08 in 10.0 mi North 18.4 mph 23.0 mph N/A   Overcast
2:39 PM 48.2 °F - 46.4 °F 93% 30.07 in 6.0 mi North 17.3 mph 25.3 mph 0.00 in   Overcast
2:53 PM 48.9 °F - 46.0 °F 90% 30.07 in 2.5 mi North 16.1 mph - 0.01 in   Overcast
3:06 PM 48.2 °F - 46.4 °F 93% 30.07 in 4.0 mi North 17.3 mph - 0.00 in Rain Light Rain
3:14 PM 48.2 °F - 46.4 °F 93% 30.07 in 10.0 mi North 18.4 mph 24.2 mph 0.00 in   Overcast
3:23 PM 48.2 °F - 46.4 °F 93% 30.06 in 10.0 mi North 19.6 mph 24.2 mph 0.00 in   Overcast
3:53 PM 48.9 °F - 46.0 °F 90% 30.08 in 5.0 mi NNE 15.0 mph 24.2 mph 0.00 in Rain Light Rain
4:01 PM 48.2 °F - 46.4 °F 93% 30.07 in 2.5 mi North 15.0 mph 24.2 mph 0.01 in Rain Light Rain
4:12 PM 48.2 °F - 46.4 °F 93% 30.07 in 4.0 mi NNE 19.6 mph 26.5 mph 0.01 in Rain Light Rain
4:16 PM 48.2 °F - 46.4 °F 93% 30.07 in 4.0 mi NNE 17.3 mph 26.5 mph 0.01 in Rain Light Rain
4:53 PM 50.0 °F - 45.0 °F 83% 30.09 in 10.0 mi North 19.6 mph 26.5 mph 0.02 in   Overcast
5:53 PM 50.0 °F - 43.0 °F 77% 30.09 in 10.0 mi North 19.6 mph 25.3 mph N/A   Overcast
6:53 PM 50.0 °F - 44.1 °F 80% 30.10 in 10.0 mi NNE 17.3 mph - N/A   Overcast
7:19 PM 50.0 °F - 42.8 °F 76% 30.10 in 10.0 mi North 16.1 mph 25.3 mph N/A   Overcast
7:27 PM 50.0 °F - 42.8 °F 76% 30.10 in 10.0 mi NNE 18.4 mph 25.3 mph N/A   Overcast
7:53 PM 50.0 °F - 43.0 °F 77% 30.11 in 10.0 mi NNE 17.3 mph 25.3 mph N/A   Overcast
8:53 PM 50.0 °F - 43.0 °F 77% 30.10 in 10.0 mi NNE 17.3 mph 27.6 mph N/A   Overcast
9:53 PM 50.0 °F - 43.0 °F 77% 30.12 in 10.0 mi NNE 19.6 mph 28.8 mph N/A   Overcast
10:53 PM 50.0 °F - 43.0 °F 77% 30.12 in 10.0 mi NNE 20.7 mph 26.5 mph N/A   Overcast